FIN3CH EFHK-EKCH

Flight info

Callsign FIN3CH
Flight time N/A
Altitude 36000
Route NUNTO Y369 REKDO DCT KOSKA DCT TOKSI N872 ERNOV
Aircraft A320/M-SDE3FGHIRWY/LB1

Departure

Time 2026-05-07 18:53
Airport Helsinki Vantaa Airport (EFHK)

Arrival

Time N/A
Airport Copenhagen Kastrup Airport (EKCH)
Time Latitude Longitude Altitude Speed Heading
2026-05-07 18:32 60.31749 24.97121 189 ft 0 kts 243°
2026-05-07 18:40 60.31753 24.97138 189 ft 2 kts 243°
2026-05-07 18:40 60.31760 24.97164 189 ft 2 kts 243°
2026-05-07 18:40 60.31766 24.97190 189 ft 2 kts 243°
2026-05-07 18:40 60.31773 24.97217 189 ft 2 kts 244°
2026-05-07 18:41 60.31773 24.97244 189 ft 2 kts 306°
2026-05-07 18:41 60.31766 24.97256 189 ft 1 kts 341°
2026-05-07 18:41 60.31761 24.97260 189 ft 0 kts 333°
2026-05-07 18:44 60.31762 24.97259 189 ft 1 kts 333°
2026-05-07 18:44 60.31791 24.97226 189 ft 6 kts 333°
2026-05-07 18:44 60.31819 24.97199 189 ft 6 kts 333°
2026-05-07 18:44 60.31853 24.97156 189 ft 4 kts 335°
2026-05-07 18:45 60.31883 24.97131 189 ft 3 kts 336°
2026-05-07 18:45 60.31923 24.97092 189 ft 9 kts 333°
2026-05-07 18:45 60.31988 24.97023 189 ft 11 kts 332°
2026-05-07 18:45 60.32086 24.96919 189 ft 12 kts 331°
2026-05-07 18:46 60.32165 24.96832 189 ft 13 kts 331°
2026-05-07 18:46 60.32248 24.96731 189 ft 14 kts 328°
2026-05-07 18:46 60.32322 24.96645 189 ft 8 kts 330°
2026-05-07 18:46 60.32342 24.96621 189 ft 3 kts 330°
2026-05-07 18:47 60.32373 24.96586 189 ft 7 kts 330°
2026-05-07 18:47 60.32434 24.96517 189 ft 12 kts 331°
2026-05-07 18:47 60.32521 24.96421 189 ft 15 kts 329°
2026-05-07 18:47 60.32623 24.96293 189 ft 18 kts 328°
2026-05-07 18:48 60.32732 24.96165 189 ft 18 kts 330°
2026-05-07 18:48 60.32843 24.96034 189 ft 18 kts 329°
2026-05-07 18:48 60.32955 24.95905 188 ft 18 kts 330°
2026-05-07 18:48 60.33068 24.95776 189 ft 18 kts 329°
2026-05-07 18:49 60.33166 24.95605 189 ft 18 kts 315°
2026-05-07 18:49 60.33199 24.95382 189 ft 15 kts 241°
2026-05-07 18:49 60.33130 24.95216 189 ft 15 kts 236°
2026-05-07 18:49 60.33108 24.95004 189 ft 15 kts 269°
2026-05-07 18:50 60.33113 24.94799 189 ft 12 kts 274°
2026-05-07 18:50 60.33115 24.94725 188 ft 0 kts 273°
2026-05-07 18:50 60.33115 24.94704 188 ft 6 kts 272°
2026-05-07 18:50 60.33118 24.94572 188 ft 10 kts 272°
2026-05-07 18:51 60.33112 24.94420 188 ft 11 kts 253°
2026-05-07 18:51 60.33079 24.94312 188 ft 4 kts 229°
2026-05-07 18:51 60.33075 24.94302 188 ft 0 kts 229°
2026-05-07 18:51 60.33074 24.94301 188 ft 0 kts 229°
2026-05-07 18:52 60.33072 24.94297 188 ft 0 kts 229°
2026-05-07 18:52 60.33012 24.94162 188 ft 44 kts 227°
2026-05-07 18:52 60.32631 24.93331 189 ft 113 kts 227°
2026-05-07 18:52 60.31975 24.91881 252 ft 160 kts 227°
2026-05-07 18:53 60.31251 24.90262 880 ft 158 kts 227°
2026-05-07 18:53 60.30470 24.88631 1508 ft 163 kts 232°
2026-05-07 18:53 60.29803 24.86806 2118 ft 166 kts 244°
2026-05-07 18:53 60.29527 24.84563 2593 ft 173 kts 279°
2026-05-07 18:54 60.29800 24.82117 3103 ft 186 kts 289°
2026-05-07 18:54 60.30176 24.79482 3545 ft 207 kts 284°
2026-05-07 18:54 60.30118 24.76419 4033 ft 233 kts 256°
2026-05-07 18:54 60.29522 24.73262 4634 ft 251 kts 250°
2026-05-07 18:55 60.28825 24.69930 5272 ft 266 kts 250°
2026-05-07 18:55 60.28096 24.66465 6190 ft 270 kts 250°
2026-05-07 18:55 60.27369 24.62976 7150 ft 272 kts 250°
2026-05-07 18:55 60.26643 24.59466 8081 ft 274 kts 250°
2026-05-07 18:56 60.25915 24.55932 9041 ft 275 kts 250°
2026-05-07 18:56 60.25199 24.52445 9955 ft 275 kts 250°
2026-05-07 18:56 60.24452 24.48918 10847 ft 278 kts 248°
2026-05-07 18:56 60.23552 24.45336 11348 ft 294 kts 245°
2026-05-07 18:57 60.22568 24.41662 11881 ft 306 kts 245°
2026-05-07 18:57 60.21550 24.37894 12713 ft 308 kts 245°
2026-05-07 18:57 60.20525 24.34111 13584 ft 308 kts 244°
2026-05-07 18:57 60.19514 24.30371 14405 ft 309 kts 245°
2026-05-07 18:58 60.18496 24.26599 15194 ft 310 kts 245°
2026-05-07 18:58 60.17468 24.22788 15962 ft 313 kts 245°
2026-05-07 18:58 60.16422 24.18924 16551 ft 319 kts 245°
2026-05-07 18:58 60.15349 24.14967 17232 ft 323 kts 245°
2026-05-07 18:59 60.14274 24.11017 17930 ft 325 kts 245°
2026-05-07 18:59 60.13183 24.07019 18597 ft 328 kts 246°
2026-05-07 18:59 60.12099 24.03047 19232 ft 330 kts 245°
2026-05-07 18:59 60.10991 23.99000 19909 ft 331 kts 245°
2026-05-07 19:00 60.09878 23.94935 20573 ft 332 kts 245°
2026-05-07 19:00 60.08758 23.90861 21223 ft 333 kts 245°
2026-05-07 19:00 60.07668 23.86823 21825 ft 334 kts 246°
2026-05-07 19:00 60.06591 23.82694 22410 ft 336 kts 246°
2026-05-07 19:01 60.05508 23.78530 22962 ft 338 kts 246°
2026-05-07 19:01 60.04419 23.74357 23502 ft 340 kts 246°
2026-05-07 19:01 60.03318 23.70156 24012 ft 342 kts 246°
2026-05-07 19:01 60.02211 23.65948 24521 ft 344 kts 246°
2026-05-07 19:02 60.01097 23.61723 25007 ft 346 kts 246°
2026-05-07 19:02 59.99971 23.57459 25451 ft 349 kts 246°
2026-05-07 19:02 59.98841 23.53184 25893 ft 352 kts 246°
2026-05-07 19:02 59.97681 23.48815 26316 ft 355 kts 246°